Thermal, CA

12:57 AM PST on December 11, 2019 (GMT -0800)
Desert Resorts Regional

Weather History for KTRM - November, 2019

Change the Weather History Date:

Friday, November 22, 2019

  Actual Average Record
Temperature  
Mean Temperature 58 °F 58 °F  
Max Temperature 71 °F 76 °F 93 °F (1950)
Min Temperature 44 °F 40 °F 29 °F (1979)
Degree Days  
Heating Degree Days 7 7  
Month to date heating degree days 38 86  
Since 1 July heating degree days 71 97  
Cooling Degree Days 0 0  
Month to date cooling degree days 47 33  
Year to date cooling degree days 4257 3686  
Growing Degree Days 8 (Base 50)    
Moisture  
Dew Point 46 °F    
Average Humidity 67    
Maximum Humidity 93    
Minimum Humidity 40    
Precipitation  
Precipitation 0.00 in 0.01 in 0.66 in (1965)
Month to date precipitation 0.40 0.15  
Year to date precipitation 3.39 2.77  
Sea Level Pressure  
Sea Level Pressure 30.12 in    
Wind  
Wind Speed 3 mph (NNE)    
Max Wind Speed 8 mph    
Max Gust Speed 13 mph    
Visibility 10 miles    
Events      
T = Trace of Precipitation, MM = Missing Value Source: NWS Daily Summary

Daily Weather History Graph

Daily Weather History Graph

Search for Another Location

Airport or City:

Astronomy

Nov. 22, 2019 Rise Set
Actual Time 6:22 AM PST 4:38 PM PST
Civil Twilight 5:56 AM PST 5:05 PM PST
Nautical Twilight 5:25 AM PST 5:35 PM PST
Astronomical Twilight 4:55 AM PST 6:05 PM PST
Moon 1:51 AM PST (11/22) 2:26 PM PST (11/22)
Length of Visible Light 11h 09m
Length of Day
10h 15m
Waning Crescent, 18% of the Moon is Illuminated
Nov 22
Waning Crescent
Nov 26
New
Dec 3
First Quarter
Dec 11
Full
Dec 18
Last Quarter

Hourly Weather History & Observations

Time (PST) Temp. Dew Point Humidity Pressure Visibility Wind Dir Wind Speed Gust Speed Precip Events Conditions
12:52 AM 48.0 °F 46.9 °F 96% 30.07 in 10.0 mi Calm Calm - N/A   Clear
1:52 AM 48.0 °F 46.0 °F 93% 30.08 in 10.0 mi Calm Calm - N/A   Clear
3:52 AM 50.0 °F 46.0 °F 86% 30.08 in 10.0 mi NNW 4.6 mph - N/A   Partly Cloudy
4:52 AM 48.9 °F 45.0 °F 86% 30.09 in 10.0 mi NNW 4.6 mph - N/A   Clear
5:52 AM 46.9 °F 43.0 °F 86% 30.12 in 10.0 mi Calm Calm - N/A   Clear
6:52 AM 45.0 °F 43.0 °F 93% 30.14 in 10.0 mi Calm Calm - N/A   Clear
7:52 AM 54.0 °F 46.9 °F 77% 30.15 in 10.0 mi North 3.5 mph - N/A   Clear
8:52 AM 60.1 °F 46.9 °F 62% 30.17 in 10.0 mi NW 3.5 mph - N/A   Clear
9:52 AM 64.0 °F 46.9 °F 54% 30.17 in 10.0 mi Calm Calm - N/A   Clear
10:52 AM 66.9 °F 46.9 °F 49% 30.16 in 10.0 mi Calm Calm - N/A   Clear
12:52 PM 70.0 °F 46.9 °F 44% 30.11 in 10.0 mi Variable 4.6 mph - N/A   Overcast
1:52 PM 70.0 °F 45.0 °F 41% 30.09 in 10.0 mi SE 5.8 mph - N/A   Mostly Cloudy
2:52 PM 70.0 °F 44.1 °F 39% 30.08 in 10.0 mi Variable 3.5 mph - N/A   Clear
3:52 PM 68.0 °F 46.9 °F 47% 30.08 in 10.0 mi SE 4.6 mph - N/A   Clear
4:52 PM 62.1 °F 48.9 °F 62% 30.09 in 10.0 mi East 3.5 mph - N/A   Clear
5:52 PM 57.9 °F 48.9 °F 72% 30.11 in 10.0 mi ESE 3.5 mph - N/A   Clear
6:52 PM 57.0 °F 48.9 °F 74% 30.13 in 10.0 mi Calm Calm - N/A   Clear
7:52 PM 53.1 °F 46.9 °F 80% 30.14 in 10.0 mi North 3.5 mph - N/A   Clear
8:52 PM 54.0 °F 48.0 °F 80% 30.16 in 10.0 mi North 4.6 mph - N/A   Clear
9:52 PM 53.1 °F 48.0 °F 83% 30.16 in 10.0 mi North 4.6 mph - N/A   Clear
10:52 PM 52.0 °F 46.0 °F 80% 30.15 in 10.0 mi NNW 4.6 mph - N/A   Clear
11:52 PM 51.1 °F 46.0 °F 83% 30.15 in 10.0 mi Calm Calm - N/A   Clear